Flag for Slovakia Weather past 2 weeks in Bratislava, Slovakia

Now
41 °F

Clear.


Feels Like: 41 °F
Forecast: 51 / 61 °F
Wind: No wind

Location: Bratislava Ivanka

Current Time: Sep 24, 2014 at 4:55:28 AM

Latest Report: Sep 24, 2014 at 4:30 AM


Visibility: 10 mi

Pressure: 30.12 "Hg

Humidity: 81%

Dew point: 36 °F

Location of BratislavaLocation

Historic Weather in Bratislava — Graph

°F

Bratislava temperature yesterday

Maximum temperature yesterday: 59 °F (at 1:30 PM)
Minimum temperature yesterday: 46 °F (at 11:30 PM)
Average temperature yesterday: 53 °F

Past Weeks' High & Low Weather Summary

 TemperatureHumidityPressure
High81 °F (Sep 9, 4:00 PM)100% (Sep 15, 4:00 AM)30.12 "Hg (Sep 15, 4:00 AM)
Low41 °F (Sep 24, 3:30 AM)47% (Sep 10, 3:00 PM)29.77 "Hg (Sep 12, 4:30 AM)
Average62 °F78%29.99 "Hg
* Reported Sep 9 3:00 AM — Sep 24 3:30 AM, Bratislava, Weather by CustomWeather, © 2014

Note: Actual official high and low records may vary slightly from our data, if they occured in-between our weather recording intervals... More about our weather records

Advertising

Bratislava weather history for previous 24 hours

 ConditionsComfort  
Time TempWeatherWind HumidityBarometerVisibility
3:30 AM
Sep 24
41 °FClear.No wind87%30.12 "Hg10 mi
3:00 AM43 °FClear.1 mph81%30.12 "Hg10 mi
2:30 AM45 °FClear.3 mph81%30.12 "Hg10 mi
2:00 AM45 °FClear.No wind76%30.12 "Hg10 mi
1:30 AM45 °FClear.3 mph81%30.12 "Hg10 mi
1:00 AM45 °FClear.3 mph81%30.12 "Hg10 mi
12:30 AM46 °FPassing clouds.3 mph76%30.12 "HgN/A
12:00 AM46 °FClear.6 mph76%30.12 "Hg10 mi
11:30 PM
Sep 23
46 °FClear.2 mph71%30.12 "Hg10 mi
11:00 PM50 °FClear.1 mph67%30.12 "Hg10 mi
10:30 PM50 °FClear.6 mph67%30.12 "Hg10 mi
10:00 PM52 °FClear.9 mph58%30.12 "Hg10 mi
9:30 PM52 °FPassing clouds.9 mph58%30.12 "HgN/A
9:00 PM52 °FPassing clouds.8 mph58%30.09 "HgN/A
8:30 PM54 °FPassing clouds.8 mph54%30.09 "HgN/A
8:00 PM54 °FClear.9 mph58%30.09 "Hg10 mi
7:30 PM54 °FSunny.9 mph63%30.07 "Hg10 mi
7:00 PM55 °FSunny.10 mph59%30.07 "Hg10 mi
6:30 PM57 °FPassing clouds.12 mph55%30.07 "HgN/A
6:00 PM57 °FPassing clouds.14 mph51%30.04 "HgN/A
5:30 PM59 °FScattered clouds.18 mph48%30.04 "HgN/A
5:00 PM59 °FPassing clouds.16 mph55%30.04 "HgN/A
4:30 PM59 °FPartly sunny.18 mph55%30.04 "HgN/A
4:00 PM59 °FScattered clouds.16 mph59%30.04 "HgN/A
3:30 PM57 °FScattered clouds.16 mph63%30.04 "HgN/A
3:00 PM57 °FLight rain. Scattered clouds.20 mph63%30.07 "HgN/A
2:30 PM57 °FLight rain. Broken clouds.16 mph63%30.07 "HgN/A
2:00 PM57 °FBroken clouds.15 mph59%30.04 "HgN/A
1:30 PM59 °FPartly sunny.20 mph55%30.04 "HgN/A
1:00 PM57 °FScattered clouds.18 mph59%30.04 "HgN/A
12:30 PM57 °FPartly sunny.21 mph59%30.04 "HgN/A
12:00 PM57 °FBroken clouds.22 mph63%30.04 "HgN/A
11:30 AM55 °FLight rain. Broken clouds.18 mph67%30.04 "HgN/A
11:00 AM57 °FBroken clouds.23 mph59%30.01 "HgN/A
10:30 AM55 °FBroken clouds.18 mph63%30.01 "HgN/A
10:00 AM55 °FLight rain. Broken clouds.17 mph67%30.01 "HgN/A
9:30 AM54 °FLight rain. Broken clouds.21 mph72%29.98 "HgN/A
9:00 AM52 °FPartly sunny.13 mph77%29.98 "HgN/A
8:30 AM50 °FBroken clouds.9 mph82%29.98 "HgN/A
8:00 AM50 °FPartly sunny.10 mph82%29.95 "HgN/A
7:30 AM50 °FLight rain. Passing clouds.7 mph82%29.95 "Hg6 mi
7:00 AM50 °FPartly cloudy.10 mph76%29.95 "HgN/A
6:30 AM50 °FPartly cloudy.18 mph76%29.92 "HgN/A
6:00 AM50 °FPartly cloudy.12 mph76%29.92 "HgN/A
5:30 AM50 °FClear.14 mph76%29.92 "Hg10 mi
5:00 AM50 °FPassing clouds.14 mph76%29.92 "HgN/A
4:30 AM50 °FPassing clouds.14 mph76%29.92 "HgN/A
4:00 AM50 °FClear.13 mph76%29.92 "Hg10 mi
Weather by CustomWeather, © 2014

See weather overviewHow to use our weather pages